Location: Napoli
(40.8330°N, 14.2500°E)
Time: 11:41:37
(UTC+01:00)

ISS - Pass Details

Date: 23 July 2017
Orbit: 402 x 407 km, 51.6° (Epoch: 22 November)

Event Time Altitude Azimuth Distance (km) Brightness Sun altitude
Rises 21:46:08 0° 224° (SW) 2,301 0.0 -13.1°
Reaches altitude 10° 21:48:13 10° 221° (SW) 1,446 -1.0 -13.4°
Maximum altitude 21:51:25 61° 141° (SE) 461 -3.9 -13.8°
Drops below altitude 10° 21:54:38 10° 60° (ENE) 1,455 -1.2 -14.3°
Sets 21:56:44 0° 57° (ENE) 2,319 -0.1 -14.6°
